Regional Weather Roundup
Issued by NWS

Home | Current Version | Previous Version | Graphics & Text | Print | Product List | Glossary Off
Versions: 1 2 3 4 5 6 7 8 9 10 11 12 13 14 15 16 17 18 19 20 21 22 23 24 25 26 27 28 29 30 31 32 33 34 35 36 37 38 39 40 41 42 43 44 45 46 47 48 49 50

580
ASUS43 KMPX 232310
RWRMN
WEATHER ROUNDUP FOR MINNESOTA
NATIONAL WEATHER SERVICE TWIN CITIES/CHANHASSEN MN
600 PM CDT WED AUG 23 2017


NOTE: "FAIR" INDICATES FEW OR NO CLOUDS BELOW 12,000 FEET WITH NO
SIGNIFICANT WEATHER AND/OR OBSTRUCTIONS TO VISIBILITY. N/A MEANS
CURRENT SKY AND/OR WEATHER CONDITIONS ARE NOT AVAILABLE.

MNZ060>063-068>070-240000-
   Twin Cities Metro

CITY           SKY/WX    TMP DP  RH WIND       PRES   REMARKS
TWIN CITIES    MOSUNNY   75  49  39 N8        30.03F
ST PAUL        MOSUNNY   74  51  44 N7        30.03F
CRYSTAL        MOSUNNY   75  47  36 N7        30.02F
BLAINE         MOSUNNY   75  52  43 NW9       30.03F
LAKEVILLE      SUNNY     73  52  46 N8        30.04S
EDEN PRAIRIE   SUNNY     76  50  40 VRB5      30.02F
SOUTH ST PAUL  MOSUNNY   74  50  42 N7        30.03S
LAKE ELMO      FAIR      72  54  53 CALM      30.05S
$$
MNZ001>005-007-008-013>017-022>024-027-028-240000-
   Northwest Minnesota

CITY           SKY/WX    TMP DP  RH WIND       PRES   REMARKS
BEMIDJI        LGT RAIN  59  52  77 NE10      30.07S
HALLOCK        CLOUDY    57  54  88 E8        30.08F
ROSEAU         CLOUDY    55  50  82 CALM      30.11R
WARROAD        RAIN      54  50  87 NW3       30.11S
THIEF RVR FALL CLOUDY    59  48  67 NE14G22   30.10R
CROOKSTON      MOSUNNY   66  52  59 E15G22    30.04R
FOSSTON        CLOUDY    61  48  63 NE10      30.06R
DETROIT LAKES  SUNNY     72  46  40 S5        30.03F
MOORHEAD       SUNNY     75  48  38 S8        29.99F
PARK RAPIDS    CLOUDY    72  48  42 NE5       30.04S
MAHNOMEN       FAIR      71  49  45 E3        30.02S
$$
MNZ006-009>011-018-025>026-240000-
   North Central Minnesota

CITY           SKY/WX    TMP DP  RH WIND       PRES   REMARKS
BAUDETTE       LGT RAIN  56  54  93 W5        30.10S
FLAG ISLAND    CLOUDY    57  46  67 W6        30.09R
INTL FALLS     CLOUDY    61  51  70 CALM      30.08R
WASKISH        RAIN      55  54  94 N5        30.11R
BIG FORK       LGT RAIN  59  54  82 CALM      30.09S
LONGVILLE      CLOUDY    64  52  63 NE7       30.07R
GRAND RAPIDS   RAIN      62  50  64 N8        30.10R
CRANE LAKE     CLOUDY    61  45  55 CALM      30.09S
ORR            MOSUNNY   61  46  59 CALM      30.06R
COOK           CLOUDY    63  48  59 CALM      30.08S
WALKER         CLOUDY    64  49  59 NE6       30.05F
$$
MNZ012-019>021-037-240000-
   Northeast Minnesota

CITY           SKY/WX    TMP DP  RH WIND       PRES   REMARKS
DULUTH         MOSUNNY   65  48  54 NE5       30.05S
ELY            MOSUNNY   61  43  51 CALM      30.07R
HIBBING        CLOUDY    61  47  59 N5        30.07R
EVELETH        CLOUDY    63  35  34 N5        30.08S
DULUTH HARBOR  MOSUNNY   68  48  49 CALM      30.05S
TWO HARBORS    PTSUNNY   66  55  68 S3        30.04S
SILVER BAY     SUNNY     63  54  72 S3        30.05S
GRAND MARAIS     N/A     68  38  33 VRB6      30.04R
G MARAIS ARPRT MOSUNNY   57  32  38 N9        30.08R
$$
MNZ029>031-032-039>041-046>048-054>057-064-240000-
   West Central Minnesota

CITY           SKY/WX    TMP DP  RH WIND       PRES   REMARKS
FERGUS FALLS   SUNNY     73  50  43 S6        30.00F
WHEATON        SUNNY     73  52  46 SE5       30.01F
MORRIS         SUNNY     75  54  46 S6        30.00F
ALEXANDRIA     SUNNY     75  49  39 CALM      30.05S
ELBOW LAKE     FAIR      73  53  48 E6        30.02S
WADENA         SUNNY     72  48  43 CALM      30.03F
GLENWOOD       SUNNY     75  48  38 SW6       30.03F
APPLETON       SUNNY     73  50  43 SE5       30.01S
BENSON         SUNNY     75  50  41 S7        30.03F
ORTONVILLE     SUNNY     75  54  46 MISG      30.00F
MADISON        SUNNY     77  55  47 SE7       30.01F
WILLMAR        FAIR      75  52  43 CALM      30.04F
$$
MNZ033>034-036-042>043-049>051-058-059-240000-
   Central Minnesota

CITY           SKY/WX    TMP DP  RH WIND       PRES   REMARKS
ST CLOUD       SUNNY     75  52  44 N5        30.03F
SAUK CENTRE    FAIR      74  49  42 S3        30.04S HAZE
PAYNESVILLE    SUNNY     74  52  45 SE6       30.04S
AITKIN         CLOUDY    66  54  63 N3        30.04S
PINE RIVER     PTSUNNY   64  52  63 NE5       30.08S
BRAINERD       PTSUNNY   70  51  51 NE6       30.05S
STAPLES        SUNNY     72  46  40 CALM      30.03F
LONG PRAIRIE   FAIR      72  48  43 CALM      30.04S
LITTLE FALLS   MOSUNNY   72  46  40 CALM      30.04S
LITCHFIELD     SUNNY     75  54  46 CALM      30.04S
BUFFALO        SUNNY     74  47  38 W3        30.04F
MAPLE LAKE     SUNNY     75  52  44 CALM      30.04F
HUTCHINSON     CLOUDY    75  51  43 CALM      30.04F
$$
MNZ037-044-045-052-053-240000-
   East Central Minnesota

CITY           SKY/WX    TMP DP  RH WIND       PRES   REMARKS
PRINCETON      SUNNY     75  52  43 N3        30.04S
MORA           SUNNY     68  50  52 N5        30.06F
CAMBRIDGE      SUNNY     73  55  53 N3        30.04F
RUSH CITY      SUNNY     70  51  50 CALM      30.05S
MOOSE LAKE     MOSUNNY   68  46  45 N3        30.04R
HINCKLEY       FAIR      70  52  52 N6        30.05S
CLOQUET        MOSUNNY   66  45  45 N6        30.06R
MCGREGOR       PTSUNNY   68  48  49 NW5       30.06S
$$
MNZ071>073-080-081-089-090-097-098-240000-
   Southwest Minnesota

CITY           SKY/WX    TMP DP  RH WIND       PRES   REMARKS
MONTEVIDEO     SUNNY     77  55  47 S5        30.03S
GRANITE FALLS  SUNNY     77  55  47 E7        30.04S
CANBY          MOSUNNY   75  56  50 CALM      30.02F
MARSHALL       MOSUNNY   75  55  49 SE8       30.02F
REDWOOD FALLS  SUNNY     74  49  41 SE6       30.03F
OLIVIA         SUNNY     73  54  49 S3        30.03S
PIPESTONE      MOSUNNY   73  57  56 S5        30.03F
WINDOM         SUNNY     73  50  43 SW5       30.04F
WORTHINGTON    PTSUNNY   75  56  51 S7        30.04F
JACKSON        SUNNY     73  54  49 CALM      30.06F
TRACY          MOSUNNY   75  57  52 S5        30.03F
SLAYTON        MOSUNNY   73  53  49 SE7       30.05F
$$
MNZ065>067-074>077-082>085-091>093-240000-
   South Central Minnesota

CITY           SKY/WX    TMP DP  RH WIND       PRES   REMARKS
MANKATO        SUNNY     74  49  41 CALM      30.05F
NEW ULM        SUNNY     73  48  40 CALM      30.04S
ST JAMES       SUNNY     73  52  46 CALM      30.05F
FAIRMONT       SUNNY     74  51  44 S3        30.05F
GLENCOE        SUNNY     75  53  46 CALM      30.03F
FARIBAULT      SUNNY     73  54  49 CALM      30.05F
OWATONNA       SUNNY     73  54  49 W3        30.05F
WASECA         SUNNY     72  46  40 CALM      30.06F
ALBERT LEA     SUNNY     75  50  41 CALM      30.06S
$$
MNZ078>079-086>088-094>096-240000-
   Southeast Minnesota

CITY           SKY/WX    TMP DP  RH WIND       PRES   REMARKS
ROCHESTER      SUNNY     71  53  52 NW9       30.06F
RED WING       SUNNY     73  48  40 N5        30.02F
STANTON        SUNNY     74  52  45 NW6       30.03S
DODGE CENTER   SUNNY     72  50  46 NW5       30.06S
WINONA         SUNNY     73  54  49 N8        30.04F
AUSTIN         SUNNY     72  48  43 NW6       30.05F
PRESTON        SUNNY     70  51  50 NW7       30.06F
$$
ABBREVIATIONS USED IN REMARKS
   TC - TEMPERATURES IN CELSIUS
  WCI - WIND CHILL INDEX
   HX - HEAT INDEX
  VSB - VISIBILITY
$$




USA.gov is the U.S. government's official web portal to all federal, state and local government web resources and services.